[[{"header":{"parameterUnit":"m.s-1","parameterCategory":2,"la1":30.2992,"la2":30.254,"lo1":-89.0895,"lo2":-89.0443,"dy":0.0025,"dx":0.0025,"nx":19,"ny":19,"refTime":"2026-03-25T21:00:00:Z","depth":"0","parameterNumber":2,"parameterNumberName":"U-component_of_CURRENTS"},"data":[0,0,0,0.3892,0.3894,0.3994,0.3995,0.4125,0.4126,0,0,0,0,0,0,0,0,0,0,0,0.3851,0.3852,0.3892,0.3894,0.3994,0.3995,0.4125,0.4126,0,0,0,0,0,0,0,0,0,0,0,0.3851,0.3852,0.3852,0.3894,0.3994,0.3995,0.4124,0.4049,0,0,0,0,0,0,0,0,0,0,0.3951,0.391,0.3851,0.3852,0.3895,0.3994,0.3995,0.4045,0.4054,0.4079,0,0.409,0,0.4113,0.4134,0.4135,0,0,0,0.3897,0.3903,0.3934,0.3852,0.3896,0.3994,0.395,0.405,0.4059,0.409,0.4092,0.4097,0.4116,0.4135,0.4136,0.4338,0.4339,0,0,0.3891,0.3869,0.3927,0.3939,0.3918,0.3947,0.3953,0.4056,0.4061,0.4093,0.4101,0.4118,0.4136,0.4137,0.4337,0.4338,0,0,0,0.3873,0.3865,0.3893,0.3934,0.3953,0.395,0.3957,0.4057,0.4067,0.4102,0.4119,0.4137,0.4138,0.4335,0.4337,0.4519,0,0,0,0.387,0.3855,0.389,0.3878,0.3951,0.4006,0.3956,0.406,0.4072,0.4119,0.4137,0.4139,0.4334,0.4336,0.4511,0.4573,0,0,0,0.3847,0.3853,0.3863,0.3877,0.392,0.4005,0.4021,0.4063,0.4083,0.4135,0.414,0.4333,0.4336,0.4504,0.4561,0.4677,0,0,0,0.3823,0.3852,0.3862,0.39,0.3919,0.4013,0.4021,0.4073,0.4115,0.4137,0.4334,0.4337,0.4502,0.4554,0.4669,0.4607,0.4638,0,0,0.3849,0.3854,0.3878,0.3891,0.3996,0.4,0.4148,0.4186,0.4179,0.4297,0.4302,0.4514,0.4561,0.4675,0.4781,0.4807,0,0,0,0.388,0.3911,0.3936,0.4001,0.4056,0.4195,0.4224,0.4286,0.442,0.422,0.4524,0.4547,0.4614,0.4561,0.4582,0.4427,0.4351,0.435,0.435,0.388,0.3939,0.4032,0.4135,0.4209,0.4332,0.4454,0.4555,0.4514,0.4615,0.4705,0.4924,0.4871,0.4885,0.4728,0.4722,0.4723,0.4724,0.4724,0.3963,0.4043,0.4148,0.4267,0.441,0.454,0.4745,0.4777,0.499,0.4902,0.4959,0.4765,0.4919,0.4742,0.4736,0.4734,0.4732,0.4731,0.473,0.3983,0.4051,0.4127,0.4325,0.4521,0.4675,0.4885,0.5028,0.5138,0.5238,0.5147,0.5141,0.4976,0.5265,0.5266,0.5267,0.5267,0.5268,0.5268,0.3984,0.4083,0.4196,0.4388,0.4499,0.4692,0.497,0.5115,0.5296,0.5333,0.5332,0.5032,0.5088,0.5055,0.5281,0.5279,0.5277,0.5276,0.5275,0.4115,0.4092,0.4219,0.4322,0.453,0.4572,0.4878,0.5115,0.5326,0.5389,0.5242,0.5381,0.5311,0.529,0.5261,0.5528,0.5528,0.5528,0.5528,0.4168,0.418,0.4248,0.4316,0.4434,0.4513,0.4565,0.4838,0.5125,0.52,0.5262,0.5101,0.5097,0.5004,0.4989,0.4949,0.513,0.513,0.5129,0.4314,0.4258,0.4282,0.4249,0.4344,0.4353,0.4252,0.4368,0.4839,0.5098,0.5073,0.509,0.4833,0.4839,0.4665,0.4657,0.458,0,0]},{"header":{"parameterUnit":"m.s-1","parameterCategory":2,"la1":30.2992,"la2":30.254,"lo1":-89.0895,"lo2":-89.0443,"dy":0.0025,"dx":0.0025,"nx":19,"ny":19,"refTime":"2026-03-25T21:00:00:Z","depth":"0","parameterNumber":3,"parameterNumberName":"V-component_of_CURRENTS"},"data":[0,0,0,0.0287,0.0287,0.0277,0.0277,0.0239,0.0239,0,0,0,0,0,0,0,0,0,0,0,0.0287,0.0287,0.0287,0.0287,0.0277,0.0277,0.0239,0.0239,0,0,0,0,0,0,0,0,0,0,0,0.0287,0.0287,0.0287,0.0287,0.0277,0.0277,0.024,0.0251,0,0,0,0,0,0,0,0,0,0,0.0264,0.0269,0.0287,0.0287,0.0287,0.0277,0.0277,0.0252,0.0251,0.024,0,0.0242,0,0.0244,0.0237,0.0237,0,0,0,0.0279,0.027,0.0271,0.0287,0.0287,0.0277,0.0279,0.0251,0.025,0.0238,0.0241,0.024,0.0244,0.0237,0.0236,0.0357,0.0358,0,0,0.028,0.028,0.0272,0.027,0.0289,0.028,0.0279,0.0251,0.0248,0.0241,0.0239,0.0243,0.0236,0.0236,0.0355,0.0357,0,0,0,0.0287,0.028,0.0282,0.0271,0.0274,0.028,0.0279,0.0249,0.0251,0.0239,0.0243,0.0236,0.0236,0.0354,0.0356,0.0616,0,0,0,0.0287,0.0285,0.0282,0.0281,0.0275,0.0264,0.0278,0.0252,0.025,0.0243,0.0236,0.0235,0.0352,0.0355,0.0605,0.0753,0,0,0,0.0287,0.0285,0.0286,0.0282,0.0282,0.0265,0.0265,0.0252,0.0252,0.0237,0.0235,0.0351,0.0354,0.0595,0.0735,0.0885,0,0,0,0.0284,0.0329,0.0286,0.0343,0.0282,0.0354,0.0265,0.0289,0.0287,0.0236,0.0352,0.0356,0.0592,0.0724,0.0874,0.1004,0.1067,0,0,0.0351,0.0336,0.0376,0.0339,0.0443,0.0355,0.0493,0.043,0.0343,0.0353,0.0356,0.0609,0.0734,0.0883,0.122,0.1277,0,0,0,0.0407,0.0444,0.0461,0.051,0.0524,0.0621,0.0549,0.0553,0.0587,0.036,0.0612,0.0683,0.0769,0.0823,0.0869,0.0541,0.0373,0.0373,0.0372,0.0507,0.054,0.0656,0.0715,0.0766,0.0802,0.0885,0.0884,0.074,0.0811,0.0897,0.1195,0.1255,0.1291,0.0952,0.0878,0.0879,0.088,0.088,0.069,0.0796,0.0852,0.0985,0.1068,0.1181,0.1259,0.1215,0.1337,0.1159,0.1227,0.1097,0.1357,0.0977,0.0897,0.0894,0.0892,0.089,0.0889,0.0811,0.0882,0.0961,0.1172,0.1373,0.1445,0.1701,0.1683,0.1607,0.1701,0.1688,0.1684,0.1346,0.1708,0.1709,0.1711,0.1712,0.1713,0.1714,0.092,0.101,0.1174,0.1375,0.1527,0.1769,0.1964,0.2079,0.2122,0.2019,0.2018,0.143,0.1446,0.141,0.1735,0.1731,0.1728,0.1726,0.1725,0.1101,0.1118,0.1341,0.1498,0.1856,0.2168,0.233,0.2586,0.2636,0.2678,0.1975,0.2169,0.21,0.206,0.2037,0.2505,0.2505,0.2505,0.2505,0.1201,0.1233,0.1508,0.175,0.2084,0.2358,0.2822,0.3014,0.2675,0.2388,0.2107,0.1883,0.1865,0.1762,0.1729,0.1689,0.2058,0.2057,0.2055,0.1328,0.1378,0.1585,0.1805,0.2177,0.2582,0.3036,0.333,0.2675,0.1991,0.1633,0.1653,0.1259,0.1259,0.103,0.101,0.0921,0,0]}],[{"header":{"parameterUnit":"m.s-1","parameterCategory":2,"la1":30.2992,"la2":30.254,"lo1":-89.0895,"lo2":-89.0443,"dy":0.0025,"dx":0.0025,"nx":19,"ny":19,"refTime":"2026-03-25T21:00:00:Z","depth":"2","parameterNumber":2,"parameterNumberName":"U-component_of_CURRENTS"},"data":[0,0,0,0.2992,0.2996,0.314,0.314,0.3271,0.3272,0,0,0,0,0,0,0,0,0,0,0,0.2946,0.2947,0.2991,0.2996,0.314,0.314,0.327,0.3272,0,0,0,0,0,0,0,0,0,0,0,0.2945,0.2947,0.2949,0.2997,0.314,0.314,0.327,0.3169,0,0,0,0,0,0,0,0,0,0,0.3034,0.2984,0.2946,0.2949,0.2998,0.314,0.314,0.3165,0.3176,0.3197,0,0.3246,0,0.3271,0.3281,0.3282,0,0,0,0.2974,0.2975,0.3042,0.2949,0.2999,0.314,0.3069,0.3171,0.3183,0.3211,0.3248,0.3253,0.3273,0.3282,0.3283,0.3471,0.3472,0,0,0.2966,0.2939,0.3034,0.3051,0.3071,0.3064,0.3073,0.3179,0.3188,0.3248,0.3256,0.3275,0.3283,0.3284,0.347,0.3471,0,0,0,0.2958,0.2933,0.2997,0.3045,0.3081,0.3069,0.3079,0.3183,0.3214,0.3258,0.3277,0.3284,0.3286,0.3469,0.3471,0.3614,0,0,0,0.2952,0.2931,0.2994,0.2974,0.308,0.3136,0.3081,0.3206,0.3219,0.3276,0.3284,0.3287,0.3468,0.347,0.3608,0.3664,0,0,0,0.2933,0.2927,0.2961,0.2973,0.3049,0.3136,0.317,0.3209,0.3232,0.3282,0.3288,0.3467,0.3469,0.3602,0.3655,0.3793,0,0,0,0.2874,0.2927,0.2961,0.3022,0.3048,0.3147,0.317,0.3238,0.3282,0.3285,0.3468,0.347,0.3601,0.3649,0.3786,0.3565,0.358,0,0,0.2903,0.2929,0.2965,0.3,0.3102,0.3123,0.3265,0.3335,0.3327,0.3423,0.3428,0.361,0.3654,0.3792,0.3701,0.3712,0,0,0,0.2948,0.2989,0.3015,0.3096,0.3163,0.3288,0.3354,0.3407,0.3524,0.3372,0.3618,0.3641,0.3724,0.3575,0.3584,0.3482,0.3481,0.3481,0.3481,0.2973,0.3026,0.308,0.3174,0.3264,0.342,0.3532,0.3629,0.3604,0.3685,0.3765,0.3972,0.3814,0.3819,0.3773,0.3774,0.3775,0.3775,0.3775,0.3037,0.3055,0.3152,0.3234,0.338,0.3521,0.3749,0.3811,0.4009,0.391,0.3985,0.3739,0.3836,0.3787,0.3785,0.3783,0.3782,0.3781,0.378,0.3036,0.3036,0.3108,0.3244,0.3409,0.3608,0.3814,0.3989,0.4127,0.4232,0.4075,0.4068,0.4073,0.428,0.4281,0.4282,0.4283,0.4284,0.4284,0.2984,0.3037,0.3088,0.3246,0.331,0.3528,0.3854,0.3996,0.417,0.4216,0.4214,0.4143,0.4127,0.4103,0.4298,0.4296,0.4294,0.4292,0.4292,0.2939,0.2963,0.3012,0.3067,0.3236,0.3309,0.3659,0.3901,0.4116,0.4157,0.4213,0.421,0.4148,0.4134,0.4109,0.4296,0.4296,0.4296,0.4296,0.2874,0.2902,0.293,0.2955,0.3069,0.3196,0.3257,0.3428,0.3745,0.3835,0.3854,0.3644,0.3654,0.3552,0.3552,0.351,0.3541,0.354,0.3538,0.2826,0.2816,0.2819,0.2852,0.2951,0.3001,0.2939,0.2872,0.3144,0.3506,0.3694,0.4251,0.3984,0.3984,0.3855,0.3845,0.3788,0,0]},{"header":{"parameterUnit":"m.s-1","parameterCategory":2,"la1":30.2992,"la2":30.254,"lo1":-89.0895,"lo2":-89.0443,"dy":0.0025,"dx":0.0025,"nx":19,"ny":19,"refTime":"2026-03-25T21:00:00:Z","depth":"2","parameterNumber":3,"parameterNumberName":"V-component_of_CURRENTS"},"data":[0,0,0,0.0149,0.0149,0.013,0.013,0.0071,0.0071,0,0,0,0,0,0,0,0,0,0,0,0.0155,0.0155,0.0149,0.0149,0.013,0.013,0.0071,0.0071,0,0,0,0,0,0,0,0,0,0,0,0.0155,0.0155,0.0155,0.0149,0.013,0.013,0.0072,0.0093,0,0,0,0,0,0,0,0,0,0,0.0115,0.0125,0.0155,0.0155,0.0149,0.013,0.013,0.0094,0.0091,0.0073,0,0.0075,0,0.0074,0.0067,0.0067,0,0,0,0.0142,0.0128,0.0126,0.0155,0.0149,0.013,0.0136,0.0093,0.009,0.0069,0.0074,0.0072,0.0073,0.0066,0.0066,0.0093,0.0094,0,0,0.0143,0.0145,0.0129,0.0125,0.015,0.0137,0.0136,0.0091,0.0087,0.0074,0.0071,0.0072,0.0066,0.0066,0.0092,0.0093,0,0,0,0.0151,0.0146,0.0146,0.0127,0.0127,0.0137,0.0135,0.0089,0.0091,0.007,0.0071,0.0066,0.0065,0.0092,0.0093,0.0223,0,0,0,0.0151,0.0151,0.0147,0.0147,0.0129,0.0112,0.0134,0.0094,0.0089,0.0071,0.0066,0.0064,0.0091,0.0092,0.0218,0.032,0,0,0,0.0155,0.0151,0.0152,0.0147,0.0143,0.0113,0.0112,0.0093,0.0089,0.0067,0.0064,0.009,0.0092,0.0213,0.031,0.0393,0,0,0,0.0153,0.0187,0.0152,0.0194,0.0143,0.0185,0.0112,0.0122,0.0111,0.0065,0.0091,0.0093,0.0212,0.0304,0.0386,0.039,0.042,0,0,0.0204,0.0193,0.0222,0.0192,0.0251,0.0186,0.0252,0.0194,0.013,0.0099,0.01,0.022,0.0309,0.0391,0.0493,0.0519,0,0,0,0.0245,0.0268,0.0278,0.0302,0.0306,0.0335,0.0278,0.0255,0.0232,0.0132,0.0219,0.0273,0.032,0.0308,0.033,0.0101,0.0101,0.0101,0.0101,0.0316,0.0332,0.0398,0.0421,0.0441,0.0435,0.0453,0.0412,0.0321,0.0333,0.0377,0.0532,0.052,0.0537,0.0349,0.0349,0.035,0.035,0.0351,0.0435,0.049,0.0506,0.0575,0.0591,0.0636,0.0633,0.0587,0.0612,0.0503,0.054,0.0445,0.0568,0.0361,0.0359,0.0357,0.0356,0.0356,0.0355,0.0503,0.0537,0.0575,0.0682,0.0765,0.0782,0.0904,0.0846,0.0768,0.0808,0.0765,0.0762,0.0632,0.0813,0.0814,0.0815,0.0816,0.0816,0.0817,0.0562,0.0606,0.0704,0.0802,0.0881,0.1003,0.1069,0.1094,0.1041,0.0949,0.0947,0.0689,0.0674,0.0658,0.083,0.0827,0.0826,0.0824,0.0824,0.0656,0.067,0.0823,0.0914,0.1125,0.1325,0.1355,0.1396,0.1356,0.1332,0.1008,0.0999,0.0965,0.0945,0.0936,0.1169,0.1169,0.1169,0.1169,0.0707,0.0732,0.0942,0.1121,0.1335,0.149,0.172,0.1638,0.1412,0.122,0.1218,0.1096,0.1081,0.1044,0.1021,0.1009,0.1263,0.1263,0.1263,0.0775,0.0838,0.0998,0.1187,0.1441,0.169,0.1907,0.181,0.1399,0.1266,0.1222,0.1178,0.0983,0.0966,0.0888,0.0861,0.0832,0,0]}],[{"header":{"parameterUnit":"m.s-1","parameterCategory":2,"la1":30.2992,"la2":30.254,"lo1":-89.0895,"lo2":-89.0443,"dy":0.0025,"dx":0.0025,"nx":19,"ny":19,"refTime":"2026-03-25T21:00:00:Z","depth":"4","parameterNumber":2,"parameterNumberName":"U-component_of_CURRENTS"},"data":[0,0,0,0.1879,0.1883,0.2082,0.2082,0.2262,0.2263,0,0,0,0,0,0,0,0,0,0,0,0.1815,0.1817,0.1878,0.1883,0.2082,0.2082,0.2261,0.2263,0,0,0,0,0,0,0,0,0,0,0,0.1814,0.1816,0.1818,0.1884,0.2081,0.2082,0.2261,0.2129,0,0,0,0,0,0,0,0,0,0,0.1945,0.1905,0.1816,0.1818,0.1885,0.2081,0.2083,0.2124,0.2137,0.2151,0,0.2197,0,0.2233,0.2274,0.2274,0,0,0,0.1881,0.1894,0.1941,0.1819,0.1887,0.2081,0.1991,0.2132,0.2147,0.2169,0.2199,0.2207,0.2236,0.2275,0.2275,0.2439,0.244,0,0,0.187,0.1854,0.1931,0.1951,0.1957,0.1985,0.1998,0.2142,0.2168,0.22,0.2211,0.2239,0.2276,0.2277,0.2439,0.2439,0,0,0,0.184,0.1847,0.1892,0.1943,0.1986,0.1991,0.2005,0.2162,0.2176,0.2214,0.2241,0.2277,0.2278,0.2438,0.2439,0.2546,0,0,0,0.1833,0.1829,0.1887,0.188,0.1983,0.2088,0.2021,0.2166,0.2184,0.224,0.2277,0.228,0.2437,0.2438,0.2542,0.2554,0,0,0,0.1802,0.1826,0.1853,0.1879,0.1965,0.2087,0.2111,0.2171,0.22,0.2274,0.228,0.2437,0.2438,0.2538,0.2548,0.2616,0,0,0,0.1772,0.1801,0.1854,0.1909,0.1963,0.2072,0.211,0.2209,0.2275,0.2277,0.2437,0.2439,0.2537,0.2544,0.2612,0.227,0,0,0,0.1775,0.1802,0.1833,0.1884,0.1973,0.2044,0.2169,0.2274,0.2299,0.2382,0.2387,0.2543,0.2548,0.2615,0.2359,0,0,0,0,0.1811,0.1839,0.1876,0.1955,0.204,0.2161,0.2262,0.2327,0.2456,0.2347,0.2543,0.2541,0.2581,0.237,0.2446,0.2446,0.2446,0.2445,0.2445,0.1788,0.1844,0.1902,0.1995,0.2088,0.2255,0.2363,0.2471,0.2499,0.2579,0.2631,0.275,0.2531,0.2648,0.2649,0.265,0.265,0.265,0.2651,0.1781,0.1804,0.1922,0.2001,0.2149,0.2281,0.2491,0.2571,0.2745,0.2724,0.276,0.2498,0.2661,0.2659,0.2657,0.2656,0.2655,0.2655,0.2654,0.1736,0.1747,0.183,0.1958,0.2125,0.2318,0.2483,0.2668,0.2808,0.2886,0.267,0.2816,0.2805,0.2931,0.2931,0.2932,0.2932,0.2932,0.2933,0.1634,0.1706,0.1748,0.1913,0.2004,0.22,0.2496,0.2611,0.2804,0.2727,0.2926,0.2844,0.2834,0.282,0.2939,0.2938,0.2937,0.2936,0.2936,0.1518,0.1572,0.161,0.1683,0.1867,0.199,0.2307,0.2483,0.2588,0.2606,0.2639,0.2652,0.2575,0.2573,0.2545,0.2588,0.2584,0.258,0,0.1414,0.1452,0.1461,0.1505,0.1602,0.1838,0.1935,0.2134,0.233,0.2246,0.2577,0.2605,0.2615,0.2517,0.251,0.2469,0,0,0,0.1307,0.1341,0.1294,0.1368,0.1451,0.1667,0.1946,0.1949,0.2303,0.2325,0.248,0.2506,0.2743,0.2957,0.287,0.2859,0.283,0,0]},{"header":{"parameterUnit":"m.s-1","parameterCategory":2,"la1":30.2992,"la2":30.254,"lo1":-89.0895,"lo2":-89.0443,"dy":0.0025,"dx":0.0025,"nx":19,"ny":19,"refTime":"2026-03-25T21:00:00:Z","depth":"4","parameterNumber":3,"parameterNumberName":"V-component_of_CURRENTS"},"data":[0,0,0,0.0131,0.0131,0.0117,0.0117,0.007,0.0069,0,0,0,0,0,0,0,0,0,0,0,0.0136,0.0136,0.0131,0.0131,0.0117,0.0117,0.007,0.0069,0,0,0,0,0,0,0,0,0,0,0,0.0136,0.0136,0.0136,0.0131,0.0117,0.0117,0.007,0.0086,0,0,0,0,0,0,0,0,0,0,0.0103,0.0113,0.0136,0.0136,0.0131,0.0117,0.0117,0.0088,0.0085,0.0069,0,0.0071,0,0.007,0.0066,0.0066,0,0,0,0.0126,0.0115,0.0112,0.0136,0.0131,0.0117,0.0122,0.0087,0.0084,0.0066,0.007,0.0069,0.0069,0.0066,0.0065,0.0054,0.0054,0,0,0.0127,0.013,0.0114,0.0111,0.0132,0.0123,0.0122,0.0085,0.0083,0.007,0.0068,0.0068,0.0065,0.0065,0.0054,0.0054,0,0,0,0.0132,0.013,0.0129,0.0113,0.0113,0.0122,0.0121,0.0085,0.0085,0.0067,0.0068,0.0065,0.0064,0.0054,0.0054,0.0131,0,0,0,0.0132,0.0134,0.013,0.0131,0.0114,0.0103,0.0121,0.0088,0.0084,0.0068,0.0065,0.0064,0.0053,0.0054,0.0128,0.0182,0,0,0,0.0136,0.0134,0.0134,0.0131,0.0128,0.0104,0.0102,0.0087,0.0084,0.0066,0.0064,0.0053,0.0054,0.0126,0.0177,0.0193,0,0,0,0.0136,0.016,0.0134,0.0163,0.0128,0.0153,0.0102,0.0109,0.0101,0.0065,0.0053,0.0054,0.0125,0.0174,0.019,0.0248,0,0,0,0.0173,0.0164,0.0184,0.0161,0.0202,0.0154,0.0185,0.0145,0.0101,0.0061,0.0061,0.0129,0.0176,0.0192,0.0283,0,0,0,0,0.02,0.0215,0.0223,0.0237,0.0238,0.0241,0.0201,0.0172,0.0139,0.0098,0.012,0.0148,0.0155,0.018,0.0057,0.0057,0.0057,0.0057,0.0057,0.0249,0.0257,0.0303,0.0314,0.0322,0.0298,0.029,0.0241,0.019,0.0182,0.0203,0.0261,0.029,0.0182,0.0182,0.0183,0.0183,0.0183,0.0183,0.0323,0.036,0.0368,0.0417,0.0412,0.043,0.0377,0.0336,0.0308,0.0258,0.026,0.0251,0.0191,0.0189,0.0188,0.0187,0.0187,0.0186,0.0186,0.036,0.0387,0.0415,0.0491,0.0542,0.0528,0.0571,0.0499,0.0395,0.0403,0.0402,0.0311,0.0312,0.0396,0.0396,0.0396,0.0397,0.0397,0.0397,0.0393,0.0428,0.0508,0.0581,0.0649,0.0716,0.0694,0.0666,0.0554,0.051,0.0429,0.0332,0.0325,0.0323,0.0402,0.0401,0.04,0.04,0.04,0.0456,0.0474,0.0597,0.0677,0.0842,0.0893,0.0876,0.0787,0.0754,0.068,0.0546,0.0537,0.0513,0.0502,0.0504,0.064,0.0641,0.0642,0,0.0499,0.0516,0.0692,0.0836,0.0976,0.1005,0.1007,0.0946,0.0776,0.0769,0.0729,0.0582,0.0573,0.0549,0.054,0.0546,0,0,0,0.0556,0.0604,0.0735,0.0877,0.1038,0.104,0.1013,0.0969,0.0813,0.0772,0.0669,0.0662,0.0557,0.0417,0.0359,0.035,0.0343,0,0]}]]